Regional Weather Roundup
Issued by NWS

Home | Current Version | Previous Version | Text Only | Print | Product List | Glossary Off
Versions: 1 2 3 4 5 6 7 8 9 10 11 12 13 14 15 16 17 18 19 20 21 22 23 24 25 26 27 28 29 30 31 32 33 34 35 36 37 38 39 40 41 42 43 44 45 46 47 48 49 50

000
ASUS43 KDTX 281001
RWRMI
MICHIGAN HOURLY REGIONAL WEATHER ROUNDUP
NATIONAL WEATHER SERVICE DETROIT/PONTIAC MI
600 AM EDT TUE MAR 28 2017

NOTE: "FAIR" INDICATES FEW OR NO CLOUDS BELOW 12,000 FEET WITH NO
SIGNIFICANT WEATHER AND/OR OBSTRUCTION TO VISIBILITY.

MIZ047>049-052>055-059>063-066>070-074>076-081>083-281100-
SOUTHEAST LOWER MICHIGAN

CITY           SKY/WX    TMP DP  RH WIND       PRES   REMARKS
ADRIAN         CLOUDY    47  44  90 NE8       29.93R
ANN ARBOR      CLOUDY    48  45  89 N8        29.92R
BAD AXE        CLOUDY    36  35  99 N10       29.98R FOG     WCI  28
CARO           CLOUDY    38  38  97 N6        29.98R FOG     WCI  34
DETROIT CITY   CLOUDY    41  39  93 NE10      29.94R
DETROIT        CLOUDY    44  41  89 NE9       29.94R
FLINT          CLOUDY    40  39  97 NE9       29.97R WCI  34
GROSSE ILE     CLOUDY    41  39  93 NE7       29.93R
HILLSDALE      CLOUDY    43  41  93 N9        29.92R
HOWELL         CLOUDY    42  41  95 N5        29.95R FOG

CITY           SKY/WX    TMP DP  RH WIND       PRES   REMARKS
JACKSON        CLOUDY    45  41  86 N8        29.94R
LAMBERTVILLE   CLOUDY    49  46  88 CALM      29.93R FOG
LANSING        CLOUDY    42  39  89 N9        29.97R FOG
LAPEER         CLOUDY    39  38  97 N7        29.96R WCI  34
MASON          CLOUDY    42  41  97 N7        29.95R
MONROE         CLOUDY    45  44  95 E6        29.92R
MT. CLEMENS    CLOUDY    40  40 100 N8        29.92R
PONTIAC        CLOUDY    40  37  89 N9        29.93R FOG     WCI  34
PORT HOPE        N/A     35  34  96 N5        29.97R WCI  31
PORT HURON     CLOUDY    37  34  87 N6        29.95S WCI  33
TRI CITIES     CLOUDY    39  39 100 N6        30.00R FOG     WCI  35
MIDLAND        CLOUDY    39  37  90 N3        29.99R
TROY           CLOUDY    41  38  90 N10       29.95S
SAGINAW HB     CLOUDY    37  36  93 N7        29.99R WCI  32
$$
MIZ043>046-050>051-056>058-064>065-071>073-077>080-281100-
SOUTHWEST LOWER MICHIGAN

CITY           SKY/WX    TMP DP  RH WIND       PRES   REMARKS
BATTLE CREEK   CLOUDY    45  42  89 N10       29.95S
BENTON HARBOR  CLOUDY    39  36  89 VRB7      29.98R WCI  34
BIG RAPIDS     CLOUDY    37  34  89 N7        29.99R WCI  32
COLDWATER      CLOUDY    46  42  88 N7        29.94R
FREMONT        CLOUDY    38  36  91 N5        30.00R WCI  35
HOLLAND        CLOUDY    41  38  89 N5        29.99R FOG
GRAND RAPIDS   DRIZZLE   42  42 100 N7        29.97R
IONIA          CLOUDY    40  38  93 NE7       29.97R
KALAMAZOO      CLOUDY    44  39  82 N8        29.96R
LUDINGTON      CLOUDY    37  36  98 N5        30.02S WCI  33
MARSHALL       CLOUDY    45  43  95 N5        29.94R
MOUNT PLEASANT CLOUDY    38  35  89 N5        29.99R WCI  35
MUSKEGON       CLOUDY    40  37  89 N6        30.01R
SOUTH HAVEN    CLOUDY    39  38  97 N5        29.99R
$$
MIZ016>042-281100-
NORTHERN LOWER MICHIGAN

CITY           SKY/WX    TMP DP  RH WIND       PRES   REMARKS
ALPENA         CLOUDY    36  36 100 N7        30.02R WCI  30
BEAVER ISLAND  CLOUDY    32  32 100 N3        30.06R FOG
BELLAIRE       CLOUDY    34  33  94 CALM      30.04R FOG
CADILLAC       CLOUDY    34  33  96 N6        29.99R WCI  29
CHARLEVOIX     CLOUDY    33  33 100 N7        30.07R FOG     WCI  26
FRANKFORT      CLOUDY    36  32  88 CALM      30.04R
GAYLORD        FOG       35  32  88 NE5       30.00R VSB 1   WCI  31
HARBOR SPRINGS CLOUDY    33  33  99 N6        30.04R WCI  28
HOUGHTON LAKE  CLOUDY    36  34  92 N5        30.00R WCI  32
MANISTEE       CLOUDY    37  34  89 N3        30.03R
OSCODA         CLOUDY    38  37  97 N5        30.00R FOG     WCI  34
PELLSTON       CLOUDY    35  32  88 N5        30.05R WCI  31
ROGERS CITY    CLOUDY    36  34  94 N3        30.04R
TRAVERSE CITY  CLOUDY    36  33  89 NE5       30.02S WCI  32
$$
MIZ007>008-015-281100-
EASTERN UPPER MICHIGAN

CITY           SKY/WX    TMP DP  RH WIND       PRES   REMARKS
KINROSS        CLOUDY    34  33  96 N6        30.05S WCI  29
MACKINAC ISLAN CLOUDY    33  33 100 N7        30.04R WCI  27
NEWBERRY       FOG       31  30  96 N3        30.06R VSB 1/2
S. S. MARIE    CLOUDY    36  32  85 N3        30.05R
MUNISING         N/A     31  30  96 N6        30.08R WCI  25
$$
MIZ004>006-011>014-085-281100-
CENTRAL UPPER MICHIGAN

CITY           SKY/WX    TMP DP  RH WIND       PRES   REMARKS
ESCANABA       CLEAR     26  25  96 N3        30.07R
MENOMINEE        N/A    N/A N/A N/A MISG        N/A
SAWYER-GWINN   CLEAR     28  26  93 CALM      30.07R
$$
MIZ001>003-009>011-084-281100-
WESTERN UPPER MICHIGAN

CITY           SKY/WX    TMP DP  RH WIND       PRES   REMARKS
IRON MOUNTAIN  CLEAR     25  22  88 NW3       30.06R
HOUGHTON       CLEAR     30  26  85 NW6       30.06R WCI  24
COPPER HARBOR    N/A     34  29  82 W6        30.07R WCI  29
IRONWOOD       PTCLDY    23  22  96 CALM      30.08S
$$

ABBREVIATIONS USED IN REMARKS
   TC - TEMPERATURE IN CELSIUS
  WCI - WIND CHILL INDEX
   HX - HEAT INDEX
  VSB - VISIBILITY





USA.gov is the U.S. government's official web portal to all federal, state and local government web resources and services.